THOR ABLESTAR DEB, 144

Orbit data source: Space-Track

THOR ABLESTAR DEB, 144 is space debris in LEO originally from a launch on Thu, 29 Jun 1961 UTC launched from the Air Force Eastern Test Range (AFETR). Debris objects in space refer to the collection of defunct objects orbiting the Earth. Examples of debris include non-operational satellites, rocket bodies, and fragments generated from explosions, collisions, or faulty payload assembly.

Loading next visibility...
Identifier
144, 1961-015AE
Orbit
LEO
Country
Flag of USUS
Related business
Manufacturer
Unknown
Mission
Spacecraft
Bus & Motor
Unknown
Mass
Unknown
Launch date (UTC)
1961-06-29 (65 years ago)
Launch vehicle
Unknown
Launch site
Air Force Eastern Test Range (AFETR)
Object type
Payload
Rocket body
Debris
Shape & HBR
Unknown shape, 0.2 m
Radar Cross Section
Medium (>0.1 m² and <1 m²)

Expand to show TLE details & history
Last TLE update: 14 hours ago

TLE from 14 hours ago
0 THOR ABLESTAR DEB
1   144U 61015AE  26256.26470794  .00000148  00000-0  17674-3 0  9993
2   144  66.4994 170.0621 0048134 297.5109  62.1080 13.91715069296904
Epoch: 2026-09-13T06:21Z
TLE epoch observation values (Epoch: 2026-09-13T06:21:10.766Z)
Latitude
0.00001°
Longitude
82.5054°
Altitude
908.372 km
Speed
7.406 km/s
True Right ascension
11h 20m 14s
True Declination
0° 00' 00"
Sunlit
Object was in daylight at epoch
Visualization orbit readout
Latitude
Unknown
Longitude
Unknown
Altitude
Unknown
Speed
Unknown
Apparent Right ascension
Unknown
Apparent Declination
Unknown
Sunlit
N/A
Visualization observer readout
Local Sidereal Time
12:35:41
Azimuth
Unknown
Elevation
Unknown
Doppler factor
Unknown
Orbital elements
Apogee altitude
956.188 km
Perigee altitude
885.92 km
Semi-major axis
7,299.191 km
Eccentricity
0.00481
Inclination
66.4994°
RAAN
170.0621°
Arg. of periapsis
297.5109°
True anomaly
62.59687°
Mean anomaly
62.108°
Eccentric anomaly
62.3523°
Mean motion
3.48042 °/min
Orbital period
103.44 mins
BSTAR
0.00017674
Loading maneuver chart data...
Computing Atmospheric mass density...

Documentation

Showing up to 5 results
|